Total_Precipitation_Accumulation
0.11 0.10 0.10 0.09 0.09 0.09 0.10 0.12 0.15 0.16 0.19 0.18 0.20 0.25 0.33 0.42 0.70 1.79 1.88 0.75 0.57 0.64 0.17 0.02 0.03 0.03 0.03 0.06 0.12 0.17 0.35 0.26 0.28 0.33 0.20 0.11 0.04 0.02 0.00 0.03 0.18 0.27 0.42 0.39 0.39 0.30 0.10 0.07 0.14 0.25 0.20 0.08 0.02 0.02
0.09 0.11 0.10 0.08 0.08 0.08 0.10 0.10 0.10 0.11 0.13 0.20 0.16 0.19 0.23 0.34 0.48 1.39 2.51 1.39 0.49 0.73 0.49 0.10 0.02 0.01 0.02 0.03 0.12 0.24 0.22 0.18 0.12 0.13 0.08 0.07 0.06 0.04 0.01 0.00 0.02 0.17 0.19 0.22 0.24 0.20 0.10 0.04 0.06 0.12 0.08 0.08 0.04 0.04
0.11 0.10 0.07 0.08 0.08 0.07 0.08 0.13 0.15 0.10 0.11 0.17 0.22 0.19 0.21 0.20 0.35 0.94 2.15 1.20 1.14 1.74 1.17 0.23 0.08 0.01 0.00 0.01 0.06 0.20 0.09 0.11 0.18 0.11 0.18 0.17 0.10 0.03 0.02 0.00 0.00 0.00 0.04 0.12 0.08 0.02 0.04 0.04 0.03 0.01 0.01 0.01 0.01 0.01
0.13 0.11 0.10 0.09 0.09 0.08 0.08 0.09 0.17 0.11 0.11 0.15 0.24 0.21 0.25 0.26 0.31 0.65 1.30 1.28 1.27 1.92 1.09 0.28 0.00 0.00 0.01 0.01 0.04 0.07 0.06 0.13 0.19 0.30 0.39 0.37 0.16 0.05 0.02 0.01 0.00 0.00 0.01 0.02 0.02 0.01 0.02 0.02 0.01 0.02 0.01 0.00 0.00 0.01
0.27 0.22 0.17 0.14 0.17 0.15 0.17 0.21 0.23 0.16 0.14 0.15 0.27 0.29 0.35 0.48 0.44 0.59 0.62 0.79 1.18 0.66 0.53 0.14 0.02 0.00 0.00 0.01 0.03 0.07 0.16 0.22 0.36 0.55 0.49 0.39 0.12 0.13 0.09 0.06 0.01 0.00 0.00 0.01 0.00 0.00 0.00 0.00 0.00 0.00 0.00 0.00 0.00 0.00
0.38 0.14 0.09 0.12 0.14 0.18 0.24 0.30 0.27 0.23 0.18 0.22 0.36 0.47 0.51 0.63 0.83 1.32 1.65 1.23 0.92 0.61 0.64 0.38 0.15 0.05 0.03 0.03 0.08 0.14 0.14 0.26 0.39 0.57 0.44 0.32 0.21 0.20 0.16 0.06 0.00 0.00 0.00 0.00 0.00 0.00 0.00 0.00 0.01 0.00 0.00 0.00 0.00 0.01
0.20 0.11 0.12 0.10 0.06 0.08 0.11 0.15 0.17 0.19 0.25 0.41 0.51 0.50 0.54 0.90 1.24 1.36 0.84 0.58 0.57 0.70 0.89 0.38 0.11 0.09 0.11 0.11 0.14 0.25 0.35 0.49 0.48 0.62 0.50 0.19 0.13 0.29 0.19 0.05 0.00 0.00 0.00 0.00 0.00 0.00 0.00 0.00 0.01 0.01 0.01 0.01 0.01 0.03
0.16 0.17 0.11 0.05 0.02 0.05 0.08 0.15 0.24 0.32 0.45 0.50 0.54 0.65 0.84 1.09 1.22 0.66 0.10 0.03 0.21 0.56 0.74 0.52 0.24 0.24 0.16 0.25 0.18 0.18 0.39 0.65 0.71 0.65 0.38 0.32 0.21 0.26 0.24 0.03 0.00 0.00 0.01 0.00 0.00 0.01 0.00 0.00 0.01 0.01 0.01 0.01 0.04 0.03
0.18 0.21 0.21 0.13 0.08 0.09 0.11 0.16 0.29 0.49 0.65 0.80 0.92 1.15 1.65 2.16 1.86 0.55 0.16 0.21 0.21 0.38 0.39 0.29 0.24 0.27 0.29 0.25 0.24 0.22 0.37 0.84 0.47 0.35 0.28 0.29 0.33 0.23 0.09 0.09 0.07 0.01 0.00 0.00 0.00 0.01 0.02 0.03 0.03 0.02 0.02 0.02 0.02 0.02
0.34 0.30 0.34 0.37 0.33 0.27 0.27 0.37 0.59 0.78 0.90 0.99 1.43 2.36 2.67 1.60 0.47 0.60 1.11 1.00 0.62 0.38 0.18 0.08 0.12 0.20 0.48 0.53 0.31 0.42 0.34 0.54 0.50 0.22 0.17 0.17 0.15 0.16 0.11 0.11 0.05 0.01 0.00 0.00 0.00 0.00 0.00 0.01 0.02 0.02 0.01 0.00 0.01 0.01
0.35 0.39 0.45 0.48 0.52 0.62 0.73 0.79 0.84 0.93 1.03 1.05 1.35 1.49 1.35 0.58 0.40 0.70 0.89 0.70 0.52 0.23 0.09 0.04 0.03 0.08 0.24 0.45 0.33 0.34 0.49 0.24 0.31 0.23 0.22 0.24 0.10 0.08 0.11 0.11 0.05 0.04 0.02 0.01 0.00 0.00 0.00 0.00 0.00 0.00 0.00 0.00 0.00 0.00
0.24 0.26 0.31 0.35 0.37 0.38 0.37 0.46 0.53 0.36 0.34 0.31 0.58 0.68 0.63 0.70 0.64 0.59 0.33 0.26 0.15 0.06 0.05 0.04 0.02 0.12 0.31 0.56 0.44 0.50 0.40 0.30 0.11 0.11 0.19 0.16 0.21 0.13 0.06 0.09 0.06 0.06 0.06 0.04 0.02 0.01 0.01 0.01 0.01 0.01 0.00 0.00 0.01 0.02
0.13 0.09 0.08 0.11 0.19 0.26 0.31 0.24 0.06 0.04 0.05 0.04 0.08 0.23 0.42 0.44 0.26 0.24 0.09 0.08 0.11 0.09 0.03 0.03 0.15 0.37 0.65 0.78 0.53 0.65 0.42 0.30 0.13 0.17 0.16 0.13 0.07 0.13 0.09 0.10 0.14 0.06 0.06 0.07 0.02 0.01 0.01 0.02 0.03 0.05 0.06 0.08 0.08 0.11
0.08 0.10 0.10 0.09 0.10 0.10 0.09 0.06 0.06 0.09 0.05 0.04 0.03 0.09 0.19 0.12 0.22 0.21 0.14 0.09 0.06 0.05 0.03 0.04 0.07 0.18 0.50 0.69 0.55 0.64 0.46 0.41 0.32 0.20 0.15 0.10 0.06 0.07 0.11 0.13 0.21 0.24 0.18 0.22 0.32 0.18 0.13 0.11 0.14 0.18 0.20 0.19 0.13 0.19
0.01 0.04 0.03 0.04 0.04 0.05 0.06 0.06 0.07 0.04 0.00 0.00 0.02 0.06 0.11 0.25 0.21 0.18 0.12 0.09 0.08 0.07 0.06 0.08 0.09 0.11 0.28 0.52 0.35 0.55 0.61 0.54 0.33 0.18 0.16 0.16 0.10 0.10 0.17 0.22 0.25 0.35 0.41 0.44 0.59 0.72 0.66 0.54 0.40 0.49 0.49 0.41 0.29 0.33
0.00 0.03 0.06 0.04 0.01 0.00 0.01 0.01 0.01 0.00 0.00 0.00 0.04 0.10 0.12 0.18 0.15 0.12 0.14 0.17 0.16 0.16 0.18 0.30 0.16 0.18 0.27 0.27 0.24 0.30 0.22 0.16 0.19 0.21 0.21 0.17 0.19 0.19 0.22 0.29 0.38 0.46 0.48 0.52 0.54 0.58 0.72 0.79 0.76 0.74 0.77 0.71 0.68 0.57
0.00 0.00 0.00 0.00 0.00 0.00 0.00 0.00 0.00 0.00 0.00 0.02 0.08 0.10 0.11 0.11 0.15 0.16 0.24 0.28 0.28 0.28 0.24 0.28 0.17 0.12 0.14 0.08 0.09 0.12 0.18 0.23 0.23 0.24 0.26 0.27 0.30 0.32 0.31 0.33 0.39 0.42 0.47 0.49 0.53 0.52 0.55 0.59 0.56 0.50 0.63 0.77 0.67 0.64
0.00 0.00 0.00 0.00 0.00 0.00 0.00 0.00 0.00 0.00 0.02 0.08 0.09 0.18 0.09 0.11 0.12 0.13 0.22 0.33 0.33 0.15 0.06 0.09 0.05 0.03 0.09 0.11 0.16 0.28 0.24 0.24 0.23 0.30 0.40 0.45 0.39 0.40 0.38 0.36 0.42 0.39 0.42 0.46 0.43 0.47 0.46 0.42 0.37 0.42 0.39 0.44 0.39 0.43
0.00 0.00 0.00 0.00 0.00 0.00 0.00 0.00 0.00 0.01 0.06 0.07 0.08 0.09 0.07 0.11 0.16 0.19 0.26 0.32 0.19 0.08 0.08 0.11 0.09 0.09 0.15 0.20 0.24 0.33 0.28 0.25 0.29 0.36 0.46 0.54 0.51 0.45 0.46 0.45 0.43 0.44 0.42 0.44 0.36 0.34 0.40 0.39 0.33 0.31 0.30 0.30 0.24 0.31
0.00 0.00 0.00 0.00 0.00 0.00 0.01 0.03 0.02 0.03 0.06 0.07 0.08 0.06 0.06 0.14 0.14 0.12 0.13 0.13 0.09 0.06 0.08 0.11 0.18 0.22 0.27 0.30 0.37 0.42 0.32 0.29 0.24 0.26 0.36 0.47 0.58 0.51 0.54 0.47 0.50 0.48 0.39 0.39 0.38 0.34 0.28 0.28 0.30 0.27 0.24 0.24 0.16 0.16
0.00 0.00 0.00 0.00 0.00 0.00 0.05 0.10 0.09 0.09 0.12 0.14 0.14 0.09 0.10 0.06 0.05 0.07 0.09 0.07 0.06 0.15 0.18 0.24 0.26 0.29 0.36 0.42 0.40 0.29 0.29 0.22 0.27 0.25 0.30 0.40 0.51 0.44 0.48 0.50 0.42 0.40 0.33 0.35 0.28 0.34 0.28 0.21 0.24 0.19 0.14 0.11 0.07 0.04
0.01 0.01 0.00 0.00 0.00 0.00 0.11 0.13 0.07 0.10 0.07 0.13 0.13 0.08 0.09 0.09 0.07 0.06 0.04 0.06 0.17 0.29 0.30 0.32 0.31 0.30 0.29 0.30 0.32 0.30 0.33 0.24 0.29 0.32 0.37 0.37 0.40 0.42 0.43 0.46 0.37 0.32 0.28 0.28 0.23 0.20 0.18 0.14 0.08 0.04 0.02 0.02 0.00 0.00
0.00 0.00 0.00 0.00 0.00 0.00 0.10 0.12 0.10 0.20 0.18 0.15 0.10 0.08 0.08 0.07 0.07 0.03 0.06 0.14 0.27 0.37 0.30 0.24 0.26 0.25 0.26 0.31 0.23 0.26 0.32 0.26 0.31 0.39 0.43 0.44 0.43 0.43 0.36 0.33 0.32 0.25 0.19 0.21 0.16 0.11 0.06 0.02 0.01 0.00 0.00 0.00 0.00 0.00
0.00 0.00 0.00 0.00 0.00 0.00 0.00 0.00 0.00 0.01 0.01 0.02 0.03 0.06 0.07 0.05 0.02 0.01 0.08 0.18 0.28 0.22 0.21 0.24 0.19 0.20 0.18 0.16 0.21 0.27 0.36 0.29 0.27 0.30 0.37 0.32 0.29 0.32 0.26 0.21 0.17 0.15 0.11 0.09 0.05 0.03 0.01 0.00 0.00 0.00 0.00 0.00 0.00 0.00
0.00 0.00 0.00 0.00 0.00 0.00 0.00 0.00 0.00 0.00 0.01 0.00 0.01 0.03 0.03 0.01 0.00 0.01 0.04 0.10 0.10 0.11 0.12 0.12 0.11 0.12 0.15 0.19 0.23 0.25 0.28 0.26 0.25 0.21 0.31 0.26 0.25 0.22 0.18 0.15 0.12 0.09 0.06 0.03 0.02 0.01 0.00 0.00 0.00 0.00 0.00 0.00 0.00 0.00
0.01 0.01 0.00 0.01 0.01 0.00 0.01 0.01 0.01 0.01 0.01 0.02 0.02 0.02 0.00 0.00 0.01 0.04 0.06 0.09 0.08 0.11 0.11 0.11 0.10 0.09 0.12 0.14 0.15 0.16 0.19 0.20 0.18 0.15 0.21 0.18 0.15 0.14 0.13 0.11 0.09 0.08 0.04 0.02 0.01 0.00 0.00 0.00 0.00 0.00 0.00 0.00 0.00 0.00
0.00 0.00 0.00 0.01 0.02 0.00 0.00 0.00 0.00 0.00 0.01 0.02 0.01 0.00 0.00 0.00 0.03 0.06 0.07 0.06 0.07 0.11 0.10 0.09 0.07 0.07 0.09 0.10 0.09 0.10 0.09 0.08 0.08 0.09 0.11 0.09 0.07 0.06 0.05 0.05 0.05 0.06 0.03 0.01 0.01 0.00 0.00 0.00 0.00 0.00 0.00 0.00 0.00 0.00
0.00 0.00 0.00 0.00 0.00 0.00 0.00 0.00 0.01 0.02 0.02 0.02 0.01 0.01 0.01 0.02 0.06 0.08 0.06 0.08 0.07 0.06 0.07 0.08 0.08 0.07 0.06 0.05 0.05 0.03 0.02 0.01 0.01 0.01 0.00 0.01 0.00 0.00 0.00 0.00 0.00 0.00 0.00 0.00 0.00 0.00 0.00 0.00 0.00 0.00 0.00 0.00 0.00 0.00
0.00 0.00 0.00 0.00 0.00 0.00 0.02 0.01 0.02 0.02 0.02 0.02 0.01 0.02 0.03 0.10 0.12 0.06 0.07 0.06 0.06 0.05 0.05 0.06 0.07 0.04 0.04 0.03 0.02 0.01 0.01 0.00 0.00 0.00 0.00 0.00 0.00 0.01 0.00 0.00 0.01 0.01 0.00 0.00 0.00 0.00 0.00 0.00 0.00 0.00 0.00 0.00 0.00 0.00
0.00 0.00 0.00 0.00 0.01 0.02 0.05 0.03 0.04 0.03 0.01 0.01 0.01 0.02 0.03 0.09 0.17 0.13 0.10 0.08 0.06 0.06 0.06 0.05 0.05 0.01 0.00 0.00 0.00 0.00 0.00 0.00 0.00 0.00 0.00 0.00 0.01 0.01 0.00 0.00 0.00 0.00 0.00 0.00 0.01 0.01 0.00 0.00 0.01 0.00 0.00 0.00 0.00 0.00
0.00 0.00 0.00 0.00 0.02 0.04 0.02 0.02 0.01 0.01 0.01 0.01 0.01 0.00 0.03 0.06 0.06 0.05 0.05 0.05 0.04 0.04 0.03 0.03 0.03 0.02 0.00 0.00 0.00 0.00 0.00 0.00 0.00 0.00 0.00 0.00 0.01 0.01 0.01 0.00 0.00 0.00 0.00 0.00 0.00 0.00 0.00 0.00 0.00 0.00 0.00 0.00 0.00 0.00
0.00 0.00 0.00 0.00 0.02 0.02 0.04 0.07 0.03 0.02 0.02 0.01 0.01 0.01 0.02 0.02 0.02 0.03 0.03 0.06 0.07 0.04 0.04 0.02 0.01 0.01 0.00 0.00 0.00 0.00 0.00 0.00 0.00 0.00 0.00 0.00 0.01 0.01 0.00 0.00 0.00 0.00 0.00 0.00 0.00 0.00 0.00 0.00 0.00 0.01 0.00 0.00 0.00 0.00
0.00 0.00 0.00 0.00 0.01 0.01 0.02 0.03 0.01 0.01 0.02 0.02 0.03 0.03 0.03 0.02 0.02 0.03 0.03 0.06 0.08 0.02 0.02 0.01 0.00 0.00 0.00 0.00 0.00 0.00 0.00 0.00 0.00 0.00 0.00 0.00 0.00 0.00 0.00 0.01 0.00 0.00 0.00 0.00 0.00 0.00 0.00 0.00 0.00 0.00 0.00 0.00 0.00 0.00